Skip Page Navigation
NASA JPL Caltech
NASA Logo - Jet Propulsion Laboratory + View the NASA Portal
+ Center for Near-Earth Object Studies
JPL Home Earth Solar System Stars & Galaxies Technology
JPL Solar System Dynamics
BODIES ORBITS EPHEMERIDES TOOLS PHYSICAL DATA DISCOVERY FAQ SITE MAP
IMPORTANT: The SSD Announcement email list is now available. Major changes are coming in the near future, including possible hostname and/or URL changes. To be notified of such changes, subscribe to this email list.

Please visit this page for more details.


JPL Small-Body Database Browser
Search: [ help ]  
17295 (2827 P-L)
Classification: Main-belt Asteroid          SPK-ID: 2017295
Ephemeris | Orbit Diagram | Orbital Elements | Mission Design | Physical Parameters | Discovery Circumstances ]

[ show orbit diagram ]
Orbital Elements at Epoch 2458600.5 (2019-Apr-27.0) TDB
Reference: JPL 22 (heliocentric ecliptic J2000)
 Element Value Uncertainty (1-sigma)   Units 
e .09968107060534007 3.5136e-08  
a 2.374401615055761 9.7213e-09 au
q 2.137718720019954 8.337e-08 au
i 4.958720357062121 4.0809e-06 deg
node 27.73455111760107 4.8421e-05 deg
peri 199.4504314535168 5.3257e-05 deg
M 139.407478200077 2.3538e-05 deg
tp 2458082.996530543049
(2017-Nov-25.49653054)
8.6597e-05 TDB
period 1336.37916279587
3.66
8.2072e-06
2.247e-08
d
yr
n .2693846252786788 1.6544e-09 deg/d
Q 2.611084510091568 1.069e-08 au
  Orbit Determination Parameters
   # obs. used (total)      1153  
   data-arc span      21620 days (59.19 yr)  
   first obs. used      1960-09-24  
   last obs. used      2019-12-04  
   planetary ephem.      DE431  
   SB-pert. ephem.      SB431-N16  
   condition code      0  
   norm. resid. RMS      .51382  
   source      ORB  
   producer      Otto Matic  
   solution date      2019-Dec-14 00:19:01  

Additional Information
 Earth MOID = 1.12898 au 
 Jupiter MOID = 2.36879 au 
 T_jup = 3.531 
[ show covariance matrix ]

Ephemeris | Orbit Diagram | Orbital Elements | Mission Design | Physical Parameters | Discovery Circumstances ]

Physical Parameter Table
Parameter Symbol Value Units Sigma Reference Notes
absolute magnitude H 15.1   n/a MPO416893  
diameter diameter 2.185 km 0.323 urn:nasa:pds:neowise_diameters_albedos::2.0[mainbelt] (http://adsabs.harvard.edu/abs/2011ApJ...741...68M)  
geometric albedo albedo 0.370   0.136 urn:nasa:pds:neowise_diameters_albedos::2.0[mainbelt] (http://adsabs.harvard.edu/abs/2011ApJ...741...68M)  

17295 (2827 P-L)          Discovered 1960-Sep-24 by van Houten, C. J., van Houten-Groeneveld, I., Gehrels, T. at Palomar
Reference: 20000913/Numbers.arcLast Updated: 2004-04-19

Alternate Designations
 2827 P-L = 1993 TC41 
Ephemeris | Orbit Diagram | Orbital Elements | Mission Design | Physical Parameters | Discovery Circumstances ]
ABOUT SSD CREDITS/AWARDS PRIVACY/COPYRIGHT GLOSSARY LINKS
FirstGov 2020-Jan-25 14:10 UT
(server date/time)  
NASA Home Page
Site Manager:   Ryan S. Park
Webmaster  Alan B. Chamberlin